owner,sensor,date,latitude,longitude,air_pressure(mBar),qcFlag 
WAVCIS,ioos:station:WAVCIS:CSI09:1,2017-03-01T00:00:00Z,29.1015,-89.9782,1017.14,11111222 
WAVCIS,ioos:station:WAVCIS:CSI09:1,2017-03-01T01:00:00Z,29.1015,-89.9782,1017.17,11111222 
WAVCIS,ioos:station:WAVCIS:CSI09:1,2017-03-01T02:00:00Z,29.1015,-89.9782,1017.49,11111222 
WAVCIS,ioos:station:WAVCIS:CSI09:1,2017-03-01T03:00:00Z,29.1015,-89.9782,1017.81,11111222 
WAVCIS,ioos:station:WAVCIS:CSI09:1,2017-03-01T04:00:00Z,29.1015,-89.9782,1018.05,11111222 
WAVCIS,ioos:station:WAVCIS:CSI09:1,2017-03-01T05:00:00Z,29.1015,-89.9782,1017.77,11111222 
WAVCIS,ioos:station:WAVCIS:CSI09:1,2017-03-01T06:00:00Z,29.1015,-89.9782,1017.58,11111222 
WAVCIS,ioos:station:WAVCIS:CSI09:1,2017-03-01T07:00:00Z,29.1015,-89.9782,1017.26,11111222 
WAVCIS,ioos:station:WAVCIS:CSI09:1,2017-03-01T08:00:00Z,29.1015,-89.9782,1016.43,11111222 
WAVCIS,ioos:station:WAVCIS:CSI09:1,2017-03-01T09:00:00Z,29.1015,-89.9782,1015.3,11111222 
WAVCIS,ioos:station:WAVCIS:CSI09:1,2017-03-01T10:00:00Z,29.1015,-89.9782,1014.86,11111222 
WAVCIS,ioos:station:WAVCIS:CSI09:1,2017-03-01T11:00:00Z,29.1015,-89.9782,1014.55,11111222 
WAVCIS,ioos:station:WAVCIS:CSI09:1,2017-03-01T12:00:00Z,29.1015,-89.9782,1015.57,11111222 
WAVCIS,ioos:station:WAVCIS:CSI09:1,2017-03-01T13:00:00Z,29.1015,-89.9782,1015.99,11111222 
WAVCIS,ioos:station:WAVCIS:CSI09:1,2017-03-01T14:00:00Z,29.1015,-89.9782,1016.14,11111222 
WAVCIS,ioos:station:WAVCIS:CSI09:1,2017-03-01T15:00:00Z,29.1015,-89.9782,1017.0,11111222 
WAVCIS,ioos:station:WAVCIS:CSI09:1,2017-03-01T16:00:00Z,29.1015,-89.9782,1017.79,11111222 
WAVCIS,ioos:station:WAVCIS:CSI09:1,2017-03-01T17:00:00Z,29.1015,-89.9782,1018.39,11111222 
WAVCIS,ioos:station:WAVCIS:CSI09:1,2017-03-01T18:00:00Z,29.1015,-89.9782,1017.74,11111222 
WAVCIS,ioos:station:WAVCIS:CSI09:1,2017-03-01T19:00:00Z,29.1015,-89.9782,1017.92,11111222 
WAVCIS,ioos:station:WAVCIS:CSI09:1,2017-03-01T20:00:00Z,29.1015,-89.9782,1016.89,11111222 
WAVCIS,ioos:station:WAVCIS:CSI09:1,2017-03-01T21:00:00Z,29.1015,-89.9782,1016.25,11111222 
WAVCIS,ioos:station:WAVCIS:CSI09:1,2017-03-01T22:00:00Z,29.1015,-89.9782,1015.66,11111222 
WAVCIS,ioos:station:WAVCIS:CSI09:1,2017-03-01T23:00:00Z,29.1015,-89.9782,1015.28,11111222 
WAVCIS,ioos:station:WAVCIS:CSI09:1,2017-03-02T00:00:00Z,29.1015,-89.9782,1015.57,11111222 
WAVCIS,ioos:station:WAVCIS:CSI09:1,2017-03-02T01:00:00Z,29.1015,-89.9782,1015.68,11111222 
WAVCIS,ioos:station:WAVCIS:CSI09:1,2017-03-02T02:00:00Z,29.1015,-89.9782,1016.1,11111222 
WAVCIS,ioos:station:WAVCIS:CSI09:1,2017-03-02T03:00:00Z,29.1015,-89.9782,1016.57,11111222 
WAVCIS,ioos:station:WAVCIS:CSI09:1,2017-03-02T04:00:00Z,29.1015,-89.9782,1016.96,11111222 
WAVCIS,ioos:station:WAVCIS:CSI09:1,2017-03-02T05:00:00Z,29.1015,-89.9782,1017.4,11111222 
WAVCIS,ioos:station:WAVCIS:CSI09:1,2017-03-02T06:00:00Z,29.1015,-89.9782,1017.84,11111222 
WAVCIS,ioos:station:WAVCIS:CSI09:1,2017-03-02T07:00:00Z,29.1015,-89.9782,1017.83,11111222 
WAVCIS,ioos:station:WAVCIS:CSI09:1,2017-03-02T08:00:00Z,29.1015,-89.9782,1017.71,11111222 
WAVCIS,ioos:station:WAVCIS:CSI09:1,2017-03-02T09:00:00Z,29.1015,-89.9782,1017.94,11111222 
WAVCIS,ioos:station:WAVCIS:CSI09:1,2017-03-02T10:00:00Z,29.1015,-89.9782,1017.96,11111222 
WAVCIS,ioos:station:WAVCIS:CSI09:1,2017-03-02T11:00:00Z,29.1015,-89.9782,1018.72,11111222 
WAVCIS,ioos:station:WAVCIS:CSI09:1,2017-03-02T12:00:00Z,29.1015,-89.9782,1019.86,11111222 
WAVCIS,ioos:station:WAVCIS:CSI09:1,2017-03-02T13:00:00Z,29.1015,-89.9782,1020.83,11111222 
WAVCIS,ioos:station:WAVCIS:CSI09:1,2017-03-02T14:00:00Z,29.1015,-89.9782,1022.09,11111222 
WAVCIS,ioos:station:WAVCIS:CSI09:1,2017-03-02T15:00:00Z,29.1015,-89.9782,1023.03,11111222 
WAVCIS,ioos:station:WAVCIS:CSI09:1,2017-03-02T16:00:00Z,29.1015,-89.9782,1023.9,11111222 
WAVCIS,ioos:station:WAVCIS:CSI09:1,2017-03-02T17:00:00Z,29.1015,-89.9782,1024.59,11111222 
WAVCIS,ioos:station:WAVCIS:CSI09:1,2017-03-02T18:00:00Z,29.1015,-89.9782,1024.74,11111222 
WAVCIS,ioos:station:WAVCIS:CSI09:1,2017-03-02T19:00:00Z,29.1015,-89.9782,1024.56,11111222 
WAVCIS,ioos:station:WAVCIS:CSI09:1,2017-03-02T20:00:00Z,29.1015,-89.9782,1024.39,11111222 
WAVCIS,ioos:station:WAVCIS:CSI09:1,2017-03-02T21:00:00Z,29.1015,-89.9782,1024.13,11111222 
WAVCIS,ioos:station:WAVCIS:CSI09:1,2017-03-02T22:00:00Z,29.1015,-89.9782,1024.04,11111222 
WAVCIS,ioos:station:WAVCIS:CSI09:1,2017-03-02T23:00:00Z,29.1015,-89.9782,1024.59,11111222 
WAVCIS,ioos:station:WAVCIS:CSI09:1,2017-03-03T00:00:00Z,29.1015,-89.9782,1025.41,11111222 
WAVCIS,ioos:station:WAVCIS:CSI09:1,2017-03-03T01:00:00Z,29.1015,-89.9782,1025.72,11111222 
WAVCIS,ioos:station:WAVCIS:CSI09:1,2017-03-03T02:00:00Z,29.1015,-89.9782,1026.28,11111222 
WAVCIS,ioos:station:WAVCIS:CSI09:1,2017-03-03T03:00:00Z,29.1015,-89.9782,1026.89,11111222 
WAVCIS,ioos:station:WAVCIS:CSI09:1,2017-03-03T04:00:00Z,29.1015,-89.9782,1027.55,11111222 
WAVCIS,ioos:station:WAVCIS:CSI09:1,2017-03-03T05:00:00Z,29.1015,-89.9782,1027.89,11111222 
WAVCIS,ioos:station:WAVCIS:CSI09:1,2017-03-03T06:00:00Z,29.1015,-89.9782,1028.22,11111222 
WAVCIS,ioos:station:WAVCIS:CSI09:1,2017-03-03T07:00:00Z,29.1015,-89.9782,1028.14,11111222 
WAVCIS,ioos:station:WAVCIS:CSI09:1,2017-03-03T08:00:00Z,29.1015,-89.9782,1028.24,11111222 
WAVCIS,ioos:station:WAVCIS:CSI09:1,2017-03-03T09:00:00Z,29.1015,-89.9782,1028.73,11111222 
WAVCIS,ioos:station:WAVCIS:CSI09:1,2017-03-03T10:00:00Z,29.1015,-89.9782,1028.81,11111222 
WAVCIS,ioos:station:WAVCIS:CSI09:1,2017-03-03T11:00:00Z,29.1015,-89.9782,1029.6,11111222 
WAVCIS,ioos:station:WAVCIS:CSI09:1,2017-03-03T12:00:00Z,29.1015,-89.9782,1029.92,11111222 
WAVCIS,ioos:station:WAVCIS:CSI09:1,2017-03-03T13:00:00Z,29.1015,-89.9782,1030.49,11111222 
WAVCIS,ioos:station:WAVCIS:CSI09:1,2017-03-03T14:00:00Z,29.1015,-89.9782,1031.22,11111222 
WAVCIS,ioos:station:WAVCIS:CSI09:1,2017-03-03T15:00:00Z,29.1015,-89.9782,1031.93,11111222 
WAVCIS,ioos:station:WAVCIS:CSI09:1,2017-03-03T16:00:00Z,29.1015,-89.9782,1032.46,11111222 
WAVCIS,ioos:station:WAVCIS:CSI09:1,2017-03-03T17:00:00Z,29.1015,-89.9782,1032.77,11111222 
WAVCIS,ioos:station:WAVCIS:CSI09:1,2017-03-03T18:00:00Z,29.1015,-89.9782,1032.41,11111222 
WAVCIS,ioos:station:WAVCIS:CSI09:1,2017-03-03T19:00:00Z,29.1015,-89.9782,1031.57,11111222 
WAVCIS,ioos:station:WAVCIS:CSI09:1,2017-03-03T20:00:00Z,29.1015,-89.9782,1031.06,11111222 
WAVCIS,ioos:station:WAVCIS:CSI09:1,2017-03-03T21:00:00Z,29.1015,-89.9782,1030.71,11111222 
WAVCIS,ioos:station:WAVCIS:CSI09:1,2017-03-03T22:00:00Z,29.1015,-89.9782,1030.82,11111222 
WAVCIS,ioos:station:WAVCIS:CSI09:1,2017-03-03T23:00:00Z,29.1015,-89.9782,1030.73,11111222 
WAVCIS,ioos:station:WAVCIS:CSI09:1,2017-03-04T00:00:00Z,29.1015,-89.9782,1030.67,11111222 
WAVCIS,ioos:station:WAVCIS:CSI09:1,2017-03-04T01:00:00Z,29.1015,-89.9782,1031.13,11111222 
WAVCIS,ioos:station:WAVCIS:CSI09:1,2017-03-04T02:00:00Z,29.1015,-89.9782,1031.29,11111222 
WAVCIS,ioos:station:WAVCIS:CSI09:1,2017-03-04T03:00:00Z,29.1015,-89.9782,1031.49,11111222 
WAVCIS,ioos:station:WAVCIS:CSI09:1,2017-03-04T04:00:00Z,29.1015,-89.9782,1031.58,11111222 
WAVCIS,ioos:station:WAVCIS:CSI09:1,2017-03-04T05:00:00Z,29.1015,-89.9782,1031.75,11111222 
WAVCIS,ioos:station:WAVCIS:CSI09:1,2017-03-04T06:00:00Z,29.1015,-89.9782,1031.18,11111222 
WAVCIS,ioos:station:WAVCIS:CSI09:1,2017-03-04T07:00:00Z,29.1015,-89.9782,1030.59,11111222 
WAVCIS,ioos:station:WAVCIS:CSI09:1,2017-03-04T08:00:00Z,29.1015,-89.9782,1029.81,11111222 
WAVCIS,ioos:station:WAVCIS:CSI09:1,2017-03-04T09:00:00Z,29.1015,-89.9782,1029.12,11111222 
WAVCIS,ioos:station:WAVCIS:CSI09:1,2017-03-04T10:00:00Z,29.1015,-89.9782,1029.14,11111222 
WAVCIS,ioos:station:WAVCIS:CSI09:1,2017-03-04T11:00:00Z,29.1015,-89.9782,1029.37,11111222 
WAVCIS,ioos:station:WAVCIS:CSI09:1,2017-03-04T12:00:00Z,29.1015,-89.9782,1029.85,11111222 
WAVCIS,ioos:station:WAVCIS:CSI09:1,2017-03-04T13:00:00Z,29.1015,-89.9782,1030.49,11111222 
WAVCIS,ioos:station:WAVCIS:CSI09:1,2017-03-04T14:00:00Z,29.1015,-89.9782,1030.97,11111222 
WAVCIS,ioos:station:WAVCIS:CSI09:1,2017-03-04T15:00:00Z,29.1015,-89.9782,1030.96,11111222 
WAVCIS,ioos:station:WAVCIS:CSI09:1,2017-03-04T16:00:00Z,29.1015,-89.9782,1031.4,11111222 
WAVCIS,ioos:station:WAVCIS:CSI09:1,2017-03-04T17:00:00Z,29.1015,-89.9782,1030.81,11111222 
WAVCIS,ioos:station:WAVCIS:CSI09:1,2017-03-04T18:00:00Z,29.1015,-89.9782,1029.81,11111222 
WAVCIS,ioos:station:WAVCIS:CSI09:1,2017-03-04T19:00:00Z,29.1015,-89.9782,1028.96,11111222 
WAVCIS,ioos:station:WAVCIS:CSI09:1,2017-03-04T20:00:00Z,29.1015,-89.9782,1027.95,11111222 
WAVCIS,ioos:station:WAVCIS:CSI09:1,2017-03-04T21:00:00Z,29.1015,-89.9782,1027.44,11111222 
WAVCIS,ioos:station:WAVCIS:CSI09:1,2017-03-04T22:00:00Z,29.1015,-89.9782,1027.51,11111222 
WAVCIS,ioos:station:WAVCIS:CSI09:1,2017-03-04T23:00:00Z,29.1015,-89.9782,1027.23,11111222 
WAVCIS,ioos:station:WAVCIS:CSI09:1,2017-03-05T00:00:00Z,29.1015,-89.9782,1027.76,11111222 
WAVCIS,ioos:station:WAVCIS:CSI09:1,2017-03-05T01:00:00Z,29.1015,-89.9782,1028.02,11111222 
WAVCIS,ioos:station:WAVCIS:CSI09:1,2017-03-05T02:00:00Z,29.1015,-89.9782,1028.37,11111222 
WAVCIS,ioos:station:WAVCIS:CSI09:1,2017-03-05T03:00:00Z,29.1015,-89.9782,1028.38,11111222 
WAVCIS,ioos:station:WAVCIS:CSI09:1,2017-03-05T04:00:00Z,29.1015,-89.9782,1028.39,11111222 
WAVCIS,ioos:station:WAVCIS:CSI09:1,2017-03-05T05:00:00Z,29.1015,-89.9782,1027.86,11111222 
WAVCIS,ioos:station:WAVCIS:CSI09:1,2017-03-05T06:00:00Z,29.1015,-89.9782,1026.96,11111222 
WAVCIS,ioos:station:WAVCIS:CSI09:1,2017-03-05T07:00:00Z,29.1015,-89.9782,1026.28,11111222 
WAVCIS,ioos:station:WAVCIS:CSI09:1,2017-03-05T08:00:00Z,29.1015,-89.9782,1025.8,11111222 
WAVCIS,ioos:station:WAVCIS:CSI09:1,2017-03-05T09:00:00Z,29.1015,-89.9782,1024.76,11111222 
WAVCIS,ioos:station:WAVCIS:CSI09:1,2017-03-05T10:00:00Z,29.1015,-89.9782,1024.07,11111222 
WAVCIS,ioos:station:WAVCIS:CSI09:1,2017-03-05T11:00:00Z,29.1015,-89.9782,1024.07,11111222 
WAVCIS,ioos:station:WAVCIS:CSI09:1,2017-03-05T12:00:00Z,29.1015,-89.9782,1024.55,11111222 
WAVCIS,ioos:station:WAVCIS:CSI09:1,2017-03-05T13:00:00Z,29.1015,-89.9782,1025.17,11111222 
WAVCIS,ioos:station:WAVCIS:CSI09:1,2017-03-05T14:00:00Z,29.1015,-89.9782,1025.87,11111222 
WAVCIS,ioos:station:WAVCIS:CSI09:1,2017-03-05T15:00:00Z,29.1015,-89.9782,1026.53,11111222 
WAVCIS,ioos:station:WAVCIS:CSI09:1,2017-03-05T16:00:00Z,29.1015,-89.9782,1026.79,11111222 
WAVCIS,ioos:station:WAVCIS:CSI09:1,2017-03-05T17:00:00Z,29.1015,-89.9782,1026.76,11111222 
WAVCIS,ioos:station:WAVCIS:CSI09:1,2017-03-05T18:00:00Z,29.1015,-89.9782,1026.23,11111222 
WAVCIS,ioos:station:WAVCIS:CSI09:1,2017-03-05T19:00:00Z,29.1015,-89.9782,1025.07,11111222 
WAVCIS,ioos:station:WAVCIS:CSI09:1,2017-03-05T20:00:00Z,29.1015,-89.9782,1023.92,11111222 
WAVCIS,ioos:station:WAVCIS:CSI09:1,2017-03-05T21:00:00Z,29.1015,-89.9782,1023.43,11111222 
WAVCIS,ioos:station:WAVCIS:CSI09:1,2017-03-05T22:00:00Z,29.1015,-89.9782,1022.77,11111222 
WAVCIS,ioos:station:WAVCIS:CSI09:1,2017-03-05T23:00:00Z,29.1015,-89.9782,1022.62,11111222 
WAVCIS,ioos:station:WAVCIS:CSI09:1,2017-03-06T00:00:00Z,29.1015,-89.9782,1023.02,11111222 
WAVCIS,ioos:station:WAVCIS:CSI09:1,2017-03-06T01:00:00Z,29.1015,-89.9782,1023.28,11111222 
WAVCIS,ioos:station:WAVCIS:CSI09:1,2017-03-06T02:00:00Z,29.1015,-89.9782,1023.23,11111222 
WAVCIS,ioos:station:WAVCIS:CSI09:1,2017-03-06T03:00:00Z,29.1015,-89.9782,1023.38,11111222 
WAVCIS,ioos:station:WAVCIS:CSI09:1,2017-03-06T04:00:00Z,29.1015,-89.9782,1023.25,11111222 
WAVCIS,ioos:station:WAVCIS:CSI09:1,2017-03-06T05:00:00Z,29.1015,-89.9782,1022.87,11111222 
WAVCIS,ioos:station:WAVCIS:CSI09:1,2017-03-06T06:00:00Z,29.1015,-89.9782,1022.28,11111222 
WAVCIS,ioos:station:WAVCIS:CSI09:1,2017-03-06T07:00:00Z,29.1015,-89.9782,1022.04,11111222 
WAVCIS,ioos:station:WAVCIS:CSI09:1,2017-03-06T08:00:00Z,29.1015,-89.9782,1021.52,11111222 
WAVCIS,ioos:station:WAVCIS:CSI09:1,2017-03-06T09:00:00Z,29.1015,-89.9782,1021.18,11111222 
WAVCIS,ioos:station:WAVCIS:CSI09:1,2017-03-06T10:00:00Z,29.1015,-89.9782,1021.04,11111222 
WAVCIS,ioos:station:WAVCIS:CSI09:1,2017-03-06T11:00:00Z,29.1015,-89.9782,1021.29,11111222 
WAVCIS,ioos:station:WAVCIS:CSI09:1,2017-03-06T12:00:00Z,29.1015,-89.9782,1021.53,11111222 
WAVCIS,ioos:station:WAVCIS:CSI09:1,2017-03-06T13:00:00Z,29.1015,-89.9782,1021.87,11111222 
WAVCIS,ioos:station:WAVCIS:CSI09:1,2017-03-06T14:00:00Z,29.1015,-89.9782,1022.14,11111222 
WAVCIS,ioos:station:WAVCIS:CSI09:1,2017-03-06T15:00:00Z,29.1015,-89.9782,1022.35,11111222 
WAVCIS,ioos:station:WAVCIS:CSI09:1,2017-03-06T16:00:00Z,29.1015,-89.9782,1022.58,11111222 
WAVCIS,ioos:station:WAVCIS:CSI09:1,2017-03-06T17:00:00Z,29.1015,-89.9782,1022.64,11111222 
WAVCIS,ioos:station:WAVCIS:CSI09:1,2017-03-06T18:00:00Z,29.1015,-89.9782,1021.98,11111222 
WAVCIS,ioos:station:WAVCIS:CSI09:1,2017-03-06T19:00:00Z,29.1015,-89.9782,1021.35,11111222 
WAVCIS,ioos:station:WAVCIS:CSI09:1,2017-03-06T20:00:00Z,29.1015,-89.9782,1020.61,11111222 
WAVCIS,ioos:station:WAVCIS:CSI09:1,2017-03-06T21:00:00Z,29.1015,-89.9782,1020.33,11111222 
WAVCIS,ioos:station:WAVCIS:CSI09:1,2017-03-06T22:00:00Z,29.1015,-89.9782,1020.09,11111222 
WAVCIS,ioos:station:WAVCIS:CSI09:1,2017-03-06T23:00:00Z,29.1015,-89.9782,1019.61,11111222 
WAVCIS,ioos:station:WAVCIS:CSI09:1,2017-03-07T00:00:00Z,29.1015,-89.9782,1019.75,11111222 
WAVCIS,ioos:station:WAVCIS:CSI09:1,2017-03-07T01:00:00Z,29.1015,-89.9782,1019.86,11111222 
WAVCIS,ioos:station:WAVCIS:CSI09:1,2017-03-07T02:00:00Z,29.1015,-89.9782,1020.07,11111222 
WAVCIS,ioos:station:WAVCIS:CSI09:1,2017-03-07T03:00:00Z,29.1015,-89.9782,1020.29,11111222 
WAVCIS,ioos:station:WAVCIS:CSI09:1,2017-03-07T04:00:00Z,29.1015,-89.9782,1020.37,11111222 
WAVCIS,ioos:station:WAVCIS:CSI09:1,2017-03-07T05:00:00Z,29.1015,-89.9782,1020.27,11111222 
WAVCIS,ioos:station:WAVCIS:CSI09:1,2017-03-07T06:00:00Z,29.1015,-89.9782,1019.94,11111222 
WAVCIS,ioos:station:WAVCIS:CSI09:1,2017-03-07T07:00:00Z,29.1015,-89.9782,1019.51,11111222 
WAVCIS,ioos:station:WAVCIS:CSI09:1,2017-03-07T08:00:00Z,29.1015,-89.9782,1019.6,11111222 
WAVCIS,ioos:station:WAVCIS:CSI09:1,2017-03-07T09:00:00Z,29.1015,-89.9782,1019.35,11111222 
WAVCIS,ioos:station:WAVCIS:CSI09:1,2017-03-07T10:00:00Z,29.1015,-89.9782,1019.61,11111222 
WAVCIS,ioos:station:WAVCIS:CSI09:1,2017-03-07T11:00:00Z,29.1015,-89.9782,1019.63,11111222 
WAVCIS,ioos:station:WAVCIS:CSI09:1,2017-03-07T12:00:00Z,29.1015,-89.9782,1019.35,11111222 
WAVCIS,ioos:station:WAVCIS:CSI09:1,2017-03-07T13:00:00Z,29.1015,-89.9782,1020.33,11111222 
WAVCIS,ioos:station:WAVCIS:CSI09:1,2017-03-07T14:00:00Z,29.1015,-89.9782,1020.76,11111222 
WAVCIS,ioos:station:WAVCIS:CSI09:1,2017-03-07T15:00:00Z,29.1015,-89.9782,1021.79,11111222 
WAVCIS,ioos:station:WAVCIS:CSI09:1,2017-03-07T16:00:00Z,29.1015,-89.9782,1022.23,11111222 
WAVCIS,ioos:station:WAVCIS:CSI09:1,2017-03-07T17:00:00Z,29.1015,-89.9782,1022.27,11111222 
WAVCIS,ioos:station:WAVCIS:CSI09:1,2017-03-07T18:00:00Z,29.1015,-89.9782,1021.97,11111222 
WAVCIS,ioos:station:WAVCIS:CSI09:1,2017-03-07T19:00:00Z,29.1015,-89.9782,1021.52,11111222 
WAVCIS,ioos:station:WAVCIS:CSI09:1,2017-03-07T20:00:00Z,29.1015,-89.9782,1020.33,11111222 
WAVCIS,ioos:station:WAVCIS:CSI09:1,2017-03-07T21:00:00Z,29.1015,-89.9782,1019.95,11111222 
WAVCIS,ioos:station:WAVCIS:CSI09:1,2017-03-07T22:00:00Z,29.1015,-89.9782,1020.26,11111222 
WAVCIS,ioos:station:WAVCIS:CSI09:1,2017-03-07T23:00:00Z,29.1015,-89.9782,1020.78,11111222 
WAVCIS,ioos:station:WAVCIS:CSI09:1,2017-03-08T00:00:00Z,29.1015,-89.9782,1021.17,11111222 
WAVCIS,ioos:station:WAVCIS:CSI09:1,2017-03-08T01:00:00Z,29.1015,-89.9782,1021.9,11111222 
WAVCIS,ioos:station:WAVCIS:CSI09:1,2017-03-08T02:00:00Z,29.1015,-89.9782,1022.61,11111222 
WAVCIS,ioos:station:WAVCIS:CSI09:1,2017-03-08T03:00:00Z,29.1015,-89.9782,1023.22,11111222 
WAVCIS,ioos:station:WAVCIS:CSI09:1,2017-03-08T04:00:00Z,29.1015,-89.9782,1023.17,11111222 
WAVCIS,ioos:station:WAVCIS:CSI09:1,2017-03-08T05:00:00Z,29.1015,-89.9782,1023.84,11111222 
WAVCIS,ioos:station:WAVCIS:CSI09:1,2017-03-08T06:00:00Z,29.1015,-89.9782,1023.69,11111222 
WAVCIS,ioos:station:WAVCIS:CSI09:1,2017-03-08T07:00:00Z,29.1015,-89.9782,1023.06,11111222 
WAVCIS,ioos:station:WAVCIS:CSI09:1,2017-03-08T08:00:00Z,29.1015,-89.9782,1022.85,11111222 
WAVCIS,ioos:station:WAVCIS:CSI09:1,2017-03-08T09:00:00Z,29.1015,-89.9782,1022.73,11111222 
WAVCIS,ioos:station:WAVCIS:CSI09:1,2017-03-08T10:00:00Z,29.1015,-89.9782,1023.25,11111222 
WAVCIS,ioos:station:WAVCIS:CSI09:1,2017-03-08T11:00:00Z,29.1015,-89.9782,1023.83,11111222 
WAVCIS,ioos:station:WAVCIS:CSI09:1,2017-03-08T12:00:00Z,29.1015,-89.9782,1024.45,11111222 
WAVCIS,ioos:station:WAVCIS:CSI09:1,2017-03-08T13:00:00Z,29.1015,-89.9782,1024.81,11111222 
WAVCIS,ioos:station:WAVCIS:CSI09:1,2017-03-08T14:00:00Z,29.1015,-89.9782,1025.41,11111222 
WAVCIS,ioos:station:WAVCIS:CSI09:1,2017-03-08T15:00:00Z,29.1015,-89.9782,1025.92,11111222 
WAVCIS,ioos:station:WAVCIS:CSI09:1,2017-03-08T16:00:00Z,29.1015,-89.9782,1026.05,11111222 
WAVCIS,ioos:station:WAVCIS:CSI09:1,2017-03-08T17:00:00Z,29.1015,-89.9782,1026.42,11111222 
WAVCIS,ioos:station:WAVCIS:CSI09:1,2017-03-08T18:00:00Z,29.1015,-89.9782,1026.01,11111222 
WAVCIS,ioos:station:WAVCIS:CSI09:1,2017-03-08T19:00:00Z,29.1015,-89.9782,1025.31,11111222 
WAVCIS,ioos:station:WAVCIS:CSI09:1,2017-03-08T20:00:00Z,29.1015,-89.9782,1024.46,11111222 
WAVCIS,ioos:station:WAVCIS:CSI09:1,2017-03-08T21:00:00Z,29.1015,-89.9782,1023.98,11111222 
WAVCIS,ioos:station:WAVCIS:CSI09:1,2017-03-08T22:00:00Z,29.1015,-89.9782,1023.82,11111222 
WAVCIS,ioos:station:WAVCIS:CSI09:1,2017-03-08T23:00:00Z,29.1015,-89.9782,1023.67,11111222 
WAVCIS,ioos:station:WAVCIS:CSI09:1,2017-03-09T00:00:00Z,29.1015,-89.9782,1023.85,11111222 
WAVCIS,ioos:station:WAVCIS:CSI09:1,2017-03-09T01:00:00Z,29.1015,-89.9782,1024.35,11111222 
WAVCIS,ioos:station:WAVCIS:CSI09:1,2017-03-09T02:00:00Z,29.1015,-89.9782,1024.9,11111222 
WAVCIS,ioos:station:WAVCIS:CSI09:1,2017-03-09T03:00:00Z,29.1015,-89.9782,1025.05,11111222 
WAVCIS,ioos:station:WAVCIS:CSI09:1,2017-03-09T04:00:00Z,29.1015,-89.9782,1024.98,11111222 
WAVCIS,ioos:station:WAVCIS:CSI09:1,2017-03-09T05:00:00Z,29.1015,-89.9782,1024.38,11111222 
WAVCIS,ioos:station:WAVCIS:CSI09:1,2017-03-09T06:00:00Z,29.1015,-89.9782,1024.15,11111222 
WAVCIS,ioos:station:WAVCIS:CSI09:1,2017-03-09T07:00:00Z,29.1015,-89.9782,1024.08,11111222 
WAVCIS,ioos:station:WAVCIS:CSI09:1,2017-03-09T08:00:00Z,29.1015,-89.9782,1023.5,11111222 
WAVCIS,ioos:station:WAVCIS:CSI09:1,2017-03-09T09:00:00Z,29.1015,-89.9782,1022.85,11111222 
WAVCIS,ioos:station:WAVCIS:CSI09:1,2017-03-09T10:00:00Z,29.1015,-89.9782,1022.9,11111222 
WAVCIS,ioos:station:WAVCIS:CSI09:1,2017-03-09T11:00:00Z,29.1015,-89.9782,1023.0,11111222 
WAVCIS,ioos:station:WAVCIS:CSI09:1,2017-03-09T12:00:00Z,29.1015,-89.9782,1023.47,11111222 
WAVCIS,ioos:station:WAVCIS:CSI09:1,2017-03-09T13:00:00Z,29.1015,-89.9782,1023.96,11111222 
WAVCIS,ioos:station:WAVCIS:CSI09:1,2017-03-09T14:00:00Z,29.1015,-89.9782,1024.17,11111222 
WAVCIS,ioos:station:WAVCIS:CSI09:1,2017-03-09T15:00:00Z,29.1015,-89.9782,1024.51,11111222 
WAVCIS,ioos:station:WAVCIS:CSI09:1,2017-03-09T16:00:00Z,29.1015,-89.9782,1024.49,11111222 
WAVCIS,ioos:station:WAVCIS:CSI09:1,2017-03-09T17:00:00Z,29.1015,-89.9782,1024.17,11111222 
WAVCIS,ioos:station:WAVCIS:CSI09:1,2017-03-09T18:00:00Z,29.1015,-89.9782,1023.68,11111222 
WAVCIS,ioos:station:WAVCIS:CSI09:1,2017-03-09T19:00:00Z,29.1015,-89.9782,1022.87,11111222 
WAVCIS,ioos:station:WAVCIS:CSI09:1,2017-03-09T20:00:00Z,29.1015,-89.9782,1021.96,11111222 
WAVCIS,ioos:station:WAVCIS:CSI09:1,2017-03-09T21:00:00Z,29.1015,-89.9782,1021.34,11111222 
WAVCIS,ioos:station:WAVCIS:CSI09:1,2017-03-09T22:00:00Z,29.1015,-89.9782,1020.88,11111222 
WAVCIS,ioos:station:WAVCIS:CSI09:1,2017-03-09T23:00:00Z,29.1015,-89.9782,1020.77,11111222 
WAVCIS,ioos:station:WAVCIS:CSI09:1,2017-03-10T00:00:00Z,29.1015,-89.9782,1021.0,11111222 
WAVCIS,ioos:station:WAVCIS:CSI09:1,2017-03-10T01:00:00Z,29.1015,-89.9782,1020.91,11111222 
WAVCIS,ioos:station:WAVCIS:CSI09:1,2017-03-10T02:00:00Z,29.1015,-89.9782,1021.22,11111222 
WAVCIS,ioos:station:WAVCIS:CSI09:1,2017-03-10T03:00:00Z,29.1015,-89.9782,1021.37,11111222 
WAVCIS,ioos:station:WAVCIS:CSI09:1,2017-03-10T04:00:00Z,29.1015,-89.9782,1021.61,11111222 
WAVCIS,ioos:station:WAVCIS:CSI09:1,2017-03-10T05:00:00Z,29.1015,-89.9782,1021.35,11111222 
WAVCIS,ioos:station:WAVCIS:CSI09:1,2017-03-10T06:00:00Z,29.1015,-89.9782,1020.94,11111222 
WAVCIS,ioos:station:WAVCIS:CSI09:1,2017-03-10T07:00:00Z,29.1015,-89.9782,1020.37,11111222 
WAVCIS,ioos:station:WAVCIS:CSI09:1,2017-03-10T08:00:00Z,29.1015,-89.9782,1019.2,11111222 
WAVCIS,ioos:station:WAVCIS:CSI09:1,2017-03-10T09:00:00Z,29.1015,-89.9782,1019.18,11111222 
WAVCIS,ioos:station:WAVCIS:CSI09:1,2017-03-10T10:00:00Z,29.1015,-89.9782,1019.71,11111222 
WAVCIS,ioos:station:WAVCIS:CSI09:1,2017-03-10T11:00:00Z,29.1015,-89.9782,1019.84,11111222 
WAVCIS,ioos:station:WAVCIS:CSI09:1,2017-03-10T12:00:00Z,29.1015,-89.9782,1020.94,11111222 
WAVCIS,ioos:station:WAVCIS:CSI09:1,2017-03-10T13:00:00Z,29.1015,-89.9782,1022.0,11111222 
WAVCIS,ioos:station:WAVCIS:CSI09:1,2017-03-10T14:00:00Z,29.1015,-89.9782,1021.73,11111222 
WAVCIS,ioos:station:WAVCIS:CSI09:1,2017-03-10T15:00:00Z,29.1015,-89.9782,1022.17,11111222 
WAVCIS,ioos:station:WAVCIS:CSI09:1,2017-03-10T16:00:00Z,29.1015,-89.9782,1022.82,11111222 
WAVCIS,ioos:station:WAVCIS:CSI09:1,2017-03-10T17:00:00Z,29.1015,-89.9782,1022.92,11111222 
WAVCIS,ioos:station:WAVCIS:CSI09:1,2017-03-10T18:00:00Z,29.1015,-89.9782,1021.83,11111222 
WAVCIS,ioos:station:WAVCIS:CSI09:1,2017-03-10T19:00:00Z,29.1015,-89.9782,1020.52,11111222 
WAVCIS,ioos:station:WAVCIS:CSI09:1,2017-03-10T20:00:00Z,29.1015,-89.9782,1020.44,11111222 
WAVCIS,ioos:station:WAVCIS:CSI09:1,2017-03-10T21:00:00Z,29.1015,-89.9782,1019.82,11111222 
WAVCIS,ioos:station:WAVCIS:CSI09:1,2017-03-10T22:00:00Z,29.1015,-89.9782,1019.43,11111222 
WAVCIS,ioos:station:WAVCIS:CSI09:1,2017-03-10T23:00:00Z,29.1015,-89.9782,1019.49,11111222 
WAVCIS,ioos:station:WAVCIS:CSI09:1,2017-03-11T00:00:00Z,29.1015,-89.9782,1020.01,11111222 
WAVCIS,ioos:station:WAVCIS:CSI09:1,2017-03-11T01:00:00Z,29.1015,-89.9782,1020.19,11111222 
WAVCIS,ioos:station:WAVCIS:CSI09:1,2017-03-11T02:00:00Z,29.1015,-89.9782,1020.74,11111222 
WAVCIS,ioos:station:WAVCIS:CSI09:1,2017-03-11T03:00:00Z,29.1015,-89.9782,1020.77,11111222 
WAVCIS,ioos:station:WAVCIS:CSI09:1,2017-03-11T04:00:00Z,29.1015,-89.9782,1020.84,11111222 
WAVCIS,ioos:station:WAVCIS:CSI09:1,2017-03-11T05:00:00Z,29.1015,-89.9782,1020.85,11111222 
WAVCIS,ioos:station:WAVCIS:CSI09:1,2017-03-11T06:00:00Z,29.1015,-89.9782,1020.73,11111222 
WAVCIS,ioos:station:WAVCIS:CSI09:1,2017-03-11T07:00:00Z,29.1015,-89.9782,1020.65,11111222 
WAVCIS,ioos:station:WAVCIS:CSI09:1,2017-03-11T08:00:00Z,29.1015,-89.9782,1019.98,11111222 
WAVCIS,ioos:station:WAVCIS:CSI09:1,2017-03-11T09:00:00Z,29.1015,-89.9782,1019.71,11111222 
WAVCIS,ioos:station:WAVCIS:CSI09:1,2017-03-11T10:00:00Z,29.1015,-89.9782,1019.66,11111222 
WAVCIS,ioos:station:WAVCIS:CSI09:1,2017-03-11T11:00:00Z,29.1015,-89.9782,1020.08,11111222 
WAVCIS,ioos:station:WAVCIS:CSI09:1,2017-03-11T12:00:00Z,29.1015,-89.9782,1020.3,11111222 
WAVCIS,ioos:station:WAVCIS:CSI09:1,2017-03-11T13:00:00Z,29.1015,-89.9782,1021.05,11111222 
WAVCIS,ioos:station:WAVCIS:CSI09:1,2017-03-11T14:00:00Z,29.1015,-89.9782,1021.55,11111222 
WAVCIS,ioos:station:WAVCIS:CSI09:1,2017-03-11T15:00:00Z,29.1015,-89.9782,1021.74,11111222 
WAVCIS,ioos:station:WAVCIS:CSI09:1,2017-03-11T16:00:00Z,29.1015,-89.9782,1021.72,11111222 
WAVCIS,ioos:station:WAVCIS:CSI09:1,2017-03-11T17:00:00Z,29.1015,-89.9782,1021.23,11111222 
WAVCIS,ioos:station:WAVCIS:CSI09:1,2017-03-11T18:00:00Z,29.1015,-89.9782,1020.67,11111222 
WAVCIS,ioos:station:WAVCIS:CSI09:1,2017-03-11T19:00:00Z,29.1015,-89.9782,1019.75,11111222 
WAVCIS,ioos:station:WAVCIS:CSI09:1,2017-03-11T20:00:00Z,29.1015,-89.9782,1019.06,11111222 
WAVCIS,ioos:station:WAVCIS:CSI09:1,2017-03-11T21:00:00Z,29.1015,-89.9782,1018.69,11111222 
WAVCIS,ioos:station:WAVCIS:CSI09:1,2017-03-11T22:00:00Z,29.1015,-89.9782,1018.47,11111222 